星链-32274 (STARLINK-32274)

导读 | 豆包AI

STARLINK-32274是美国SpaceX星链计划中的一颗卫星,于2024年8月31日发射升空。星链项目旨在构建全球卫星互联网星座,为全球偏远地区、海洋等网络覆盖薄弱区域提供高速宽带服务。该卫星加入后,进一步扩充了星链星座的在轨卫星规模,提升了星座的服务覆盖能力与网络稳定性,推动全球卫星互联网服务的普及发展。

Basic Information
目录编号:
60922
目录名称:
STARLINK-32274
国际标识:
2024-154V
轨道中心:
EARTH
卫星名称:
星链-32274
卫星全名:
星链-32274 (STARLINK-32274)
卫星状态:
在轨 (已飞行561 天)
发射日期:
2024-08-31 UTC
国别 :
美国 (US)
星等 :
--
Orbit Information
数据来源 国际轨道数据 AOE轨道数据
星历时间 2026-03-15T13:46:20+0800
7小时前
查看轨道信息
2026-03-13T16:00:00+0800
2天前
查看轨道信息
半长轴 6853.377km 6853.339km
偏心率 0.0000931 0.0001189
轨道倾角 53.160° 53.158°
近地点辐角 89.890° 71.168°
升交点赤经 258.141° 267.000°
平近点角 270.220° 217.031°
近地点 474.601km 474.387km
远地点 475.879km 476.017km
周期 94.106分钟 94.105分钟
每日圈数 15.301917 15.302047
Detailed Information
固有亮度:
5
最大亮度:
2.5
卫星平台:
Starlink V1.0
覆盖范围:
全球
运营商:
太空探索技术公司
运营商所在国:
美国
制造商(研发单位):
太空探索技术公司
制造商所在国:
美国
使用方式:
暂无
Satellite Introduction
Starlink 计划是 SpaceX 推出的全球卫星互联网项目,通过发射低轨道卫星,为全球尤其是偏远地区提供高速、低延迟的互联网服务。自 2019 年起,Starlink 已部署数千颗卫星,旨在缩小全球数字鸿沟,推动互联网普及。该项目还为军事、航空等行业提供通信支持,带来广泛经济效益。
2D Orbit Map
3D Orbit Map
Orbit Altitude Analysis Chart
Orbit Inclination Analysis Chart
Orbit Comprehensive Analysis Chart
View Comprehensive Chart